Location: La Savane
(18.0962°N, 63.0646°W)
Time: 08:36:16
(UTC+00:00)

CZ-2C R/B - Pass Details

Date: 29 October 2020
Orbit: 784 x 871 km, 98.2° (Epoch: 28 November)

Event Time Altitude Azimuth Distance (km) Brightness Sun altitude
Exits shadow 23:38:08 63° 185° (S) 898 2.7 -28.2°
Drops below altitude 10° 23:42:30 10° 191° (SSW) 2,368 5.2 -29.2°
Sets 23:44:47 0° 192° (SSW) 3,287 6.0 -29.8°
